When you browse on this site, cookies collect data to enhance your experience and personalize the content and advertising you see.
Visit our Privacy Policy to learn more. By continuing to use the site, you agree to this use of cookies and data.
  • In Österreich
  • Länderverzeichnis
  • Für 7 Tage
  • Wassertemperatur
  • Wetterkarte
  • News
  • Widgets
  • user-avatar
    Anmelden

    Stündliche Wetter Nayda

    Heute, 25 Mai, Montag

    Zeit Temperatur Niederschläge Wind Luftdruck Luftfeuchtigkeit
    00:00 +9°C° 0.1 mm 1 m/S 754 mmHg 93%
    01:00 +9°C° 0.1 mm 1 m/S 754 mmHg 94%
    02:00 +8°C° 0 mm 2 m/S 753 mmHg 95%
    03:00 +8°C° 0.1 mm 2 m/S 754 mmHg 95%
    04:00 +9°C° 0.1 mm 1 m/S 754 mmHg 94%
    05:00 +9°C° 0.1 mm 1 m/S 754 mmHg 94%
    06:00 +10°C° 0.1 mm 1 m/S 754 mmHg 92%
    07:00 +10°C° 0.1 mm 1 m/S 754 mmHg 89%
    08:00 +11°C° 0 mm 1 m/S 755 mmHg 88%
    09:00 +13°C° 0 mm 1 m/S 755 mmHg 79%
    10:00 +14°C° 0 mm 1 m/S 754 mmHg 70%
    11:00 +16°C° 0 mm 1 m/S 754 mmHg 61%
    12:00 +16°C° 0.1 mm 1 m/S 754 mmHg 58%
    13:00 +18°C° 0.1 mm 1 m/S 754 mmHg 56%
    14:00 +19°C° 0.1 mm 1 m/S 754 mmHg 53%
    15:00 +18°C° 0.1 mm 1 m/S 754 mmHg 54%
    16:00 +18°C° 0.1 mm 1 m/S 754 mmHg 54%
    17:00 +18°C° 0.1 mm 1 m/S 754 mmHg 55%
    18:00 +16°C° 0.2 mm 1 m/S 754 mmHg 65%
    19:00 +14°C° 0.2 mm 1 m/S 754 mmHg 74%
    20:00 +12°C° 0.2 mm 1 m/S 755 mmHg 83%
    21:00 +11°C° 0 mm 1 m/S 755 mmHg 86%
    22:00 +11°C° 0 mm 1 m/S 755 mmHg 89%
    23:00 +10°C° 0 mm 1 m/S 756 mmHg 92%

    Morgen, 26 Mai, Dienstag

    Zeit Temperatur Niederschläge Wind Luftdruck Luftfeuchtigkeit
    00:00 +9°C° 0 mm 1 m/S 756 mmHg 93%
    01:00 +9°C° 0 mm 1 m/S 756 mmHg 94%
    02:00 +8°C° 0 mm 1 m/S 756 mmHg 94%
    03:00 +9°C° 0 mm 1 m/S 756 mmHg 95%
    04:00 +9°C° 0 mm 1 m/S 756 mmHg 95%
    05:00 +8°C° 0 mm 2 m/S 756 mmHg 96%
    06:00 +8°C° 0.4 mm 2 m/S 756 mmHg 95%
    07:00 +9°C° 0.4 mm 2 m/S 757 mmHg 95%
    08:00 +10°C° 0.4 mm 3 m/S 757 mmHg 94%
    09:00 +10°C° 0.4 mm 3 m/S 757 mmHg 94%
    10:00 +11°C° 0.4 mm 3 m/S 757 mmHg 94%
    11:00 +11°C° 0.4 mm 3 m/S 757 mmHg 94%
    12:00 +12°C° 0.1 mm 3 m/S 757 mmHg 88%
    13:00 +14°C° 0.1 mm 3 m/S 757 mmHg 82%
    14:00 +16°C° 0.1 mm 3 m/S 757 mmHg 76%
    15:00 +14°C° 0.3 mm 3 m/S 757 mmHg 80%
    16:00 +15°C° 0.3 mm 2 m/S 757 mmHg 84%
    17:00 +14°C° 0.3 mm 2 m/S 757 mmHg 88%
    18:00 +13°C° 0.1 mm 1 m/S 757 mmHg 90%
    19:00 +13°C° 0.1 mm 1 m/S 757 mmHg 92%
    20:00 +12°C° 0.1 mm 1 m/S 757 mmHg 94%
    21:00 +12°C° 0 mm 1 m/S 757 mmHg 94%
    22:00 +12°C° 0 mm 1 m/S 757 mmHg 93%
    23:00 +10°C° 0 mm 2 m/S 757 mmHg 93%

    übermorgen, 27 Mai, Mittwoch

    Zeit Temperatur Niederschläge Wind Luftdruck Luftfeuchtigkeit
    00:00 +10°C° 0 mm 2 m/S 757 mmHg 93%
    01:00 +11°C° 0 mm 1 m/S 757 mmHg 93%
    02:00 +11°C° 0 mm 1 m/S 756 mmHg 94%
    03:00 +11°C° 0 mm 1 m/S 756 mmHg 93%
    04:00 +11°C° 0 mm 1 m/S 756 mmHg 93%
    05:00 +11°C° 0 mm 1 m/S 756 mmHg 93%
    06:00 +12°C° 0.1 mm 1 m/S 756 mmHg 92%
    07:00 +12°C° 0.1 mm 1 m/S 756 mmHg 91%
    08:00 +13°C° 0.1 mm 1 m/S 757 mmHg 90%
    09:00 +14°C° 0.2 mm 1 m/S 756 mmHg 85%
    10:00 +15°C° 0.2 mm 1 m/S 756 mmHg 79%
    11:00 +16°C° 0.2 mm 1 m/S 756 mmHg 74%
    12:00 +18°C° 0.4 mm 1 m/S 755 mmHg 70%
    13:00 +19°C° 0.4 mm 1 m/S 755 mmHg 66%
    14:00 +20°C° 0.4 mm 1 m/S 755 mmHg 62%
    15:00 +20°C° 0.1 mm 1 m/S 755 mmHg 61%
    16:00 +20°C° 0.1 mm 1 m/S 754 mmHg 60%
    17:00 +19°C° 0.1 mm 1 m/S 754 mmHg 59%
    18:00 +18°C° 0.3 mm 1 m/S 754 mmHg 69%
    19:00 +15°C° 0.3 mm 1 m/S 754 mmHg 78%
    20:00 +14°C° 0.3 mm 1 m/S 754 mmHg 87%
    21:00 +13°C° 0 mm 1 m/S 754 mmHg 88%
    22:00 +12°C° 0 mm 1 m/S 753 mmHg 89%
    23:00 +12°C° 0 mm 1 m/S 753 mmHg 91%

    28 Mai, Donnerstag

    Zeit Temperatur Niederschläge Wind Luftdruck Luftfeuchtigkeit
    00:00 +12°C° 0 mm 1 m/S 753 mmHg 91%
    01:00 +11°C° 0 mm 1 m/S 753 mmHg 92%
    02:00 +10°C° 0 mm 0 m/S 753 mmHg 93%
    03:00 +10°C° 0 mm 0 m/S 752 mmHg 92%
    04:00 +10°C° 0 mm 0 m/S 752 mmHg 92%
    05:00 +10°C° 0 mm 0 m/S 752 mmHg 92%
    06:00 +12°C° 0.1 mm 1 m/S 752 mmHg 89%
    07:00 +13°C° 0.1 mm 1 m/S 752 mmHg 86%
    08:00 +15°C° 0.1 mm 1 m/S 752 mmHg 83%
    09:00 +16°C° 0.3 mm 2 m/S 752 mmHg 74%
    10:00 +17°C° 0.3 mm 2 m/S 751 mmHg 66%
    11:00 +19°C° 0.3 mm 2 m/S 751 mmHg 57%
    12:00 +19°C° 0.1 mm 2 m/S 750 mmHg 54%
    13:00 +20°C° 0.1 mm 2 m/S 750 mmHg 51%
    14:00 +21°C° 0.1 mm 2 m/S 749 mmHg 48%
    15:00 +20°C° 0.3 mm 3 m/S 749 mmHg 55%
    16:00 +19°C° 0.3 mm 3 m/S 749 mmHg 61%
    17:00 +18°C° 0.3 mm 3 m/S 749 mmHg 68%
    18:00 +17°C° 0.2 mm 3 m/S 748 mmHg 74%
    19:00 +14°C° 0.2 mm 3 m/S 748 mmHg 81%
    20:00 +14°C° 0.2 mm 2 m/S 748 mmHg 87%
    21:00 +13°C° 0 mm 2 m/S 748 mmHg 89%
    22:00 +12°C° 0 mm 2 m/S 748 mmHg 91%
    23:00 +10°C° 0 mm 2 m/S 748 mmHg 93%

    29 Mai, Freitag

    Zeit Temperatur Niederschläge Wind Luftdruck Luftfeuchtigkeit
    00:00 +10°C° 0 mm 2 m/S 747 mmHg 94%
    01:00 +10°C° 0 mm 2 m/S 747 mmHg 95%
    02:00 +9°C° 0 mm 2 m/S 747 mmHg 96%
    03:00 +9°C° 0 mm 2 m/S 747 mmHg 95%
    04:00 +10°C° 0 mm 2 m/S 747 mmHg 95%
    05:00 +10°C° 0 mm 2 m/S 747 mmHg 94%
    06:00 +12°C° 0 mm 2 m/S 747 mmHg 92%
    07:00 +13°C° 0 mm 2 m/S 747 mmHg 89%
    08:00 +14°C° 0 mm 2 m/S 747 mmHg 86%
    09:00 +14°C° 0.6 mm 3 m/S 747 mmHg 82%
    10:00 +16°C° 0.6 mm 3 m/S 747 mmHg 78%
    11:00 +17°C° 0.6 mm 4 m/S 747 mmHg 74%
    12:00 +18°C° 0.5 mm 4 m/S 747 mmHg 72%
    13:00 +18°C° 0.5 mm 4 m/S 747 mmHg 70%
    14:00 +19°C° 0.5 mm 4 m/S 747 mmHg 68%
    15:00 +18°C° 0.3 mm 4 m/S 747 mmHg 69%
    16:00 +18°C° 0.3 mm 4 m/S 747 mmHg 71%
    17:00 +18°C° 0.3 mm 4 m/S 747 mmHg 72%
    18:00 +16°C° 0.1 mm 3 m/S 748 mmHg 79%
    19:00 +14°C° 0.1 mm 3 m/S 748 mmHg 85%
    20:00 +13°C° 0.1 mm 2 m/S 748 mmHg 92%
    21:00 +12°C° 0 mm 2 m/S 748 mmHg 93%
    22:00 +10°C° 0 mm 2 m/S 749 mmHg 94%
    23:00 +9°C° 0 mm 3 m/S 749 mmHg 96%

    30 Mai, Samstag

    Zeit Temperatur Niederschläge Wind Luftdruck Luftfeuchtigkeit
    00:00 +9°C° 0 mm 3 m/S 749 mmHg 96%
    01:00 +8°C° 0 mm 2 m/S 749 mmHg 96%
    02:00 +8°C° 0 mm 2 m/S 749 mmHg 97%
    03:00 +8°C° 0 mm 2 m/S 750 mmHg 96%
    04:00 +8°C° 0 mm 2 m/S 750 mmHg 96%
    05:00 +8°C° 0 mm 2 m/S 750 mmHg 95%
    06:00 +9°C° 0 mm 3 m/S 750 mmHg 88%
    07:00 +11°C° 0 mm 3 m/S 750 mmHg 81%
    08:00 +13°C° 0 mm 3 m/S 750 mmHg 74%
    09:00 +16°C° 0 mm 3 m/S 750 mmHg 68%
    10:00 +17°C° 0 mm 3 m/S 750 mmHg 63%
    11:00 +18°C° 0 mm 3 m/S 750 mmHg 57%
    12:00 +19°C° 0 mm 4 m/S 750 mmHg 55%
    13:00 +20°C° 0 mm 4 m/S 750 mmHg 53%
    14:00 +20°C° 0 mm 4 m/S 749 mmHg 50%
    15:00 +20°C° 0 mm 4 m/S 749 mmHg 52%
    16:00 +20°C° 0 mm 4 m/S 749 mmHg 54%
    17:00 +20°C° 0 mm 4 m/S 749 mmHg 56%
    18:00 +18°C° 0 mm 3 m/S 749 mmHg 65%
    19:00 +16°C° 0 mm 3 m/S 749 mmHg 73%
    20:00 +14°C° 0 mm 2 m/S 749 mmHg 82%
    21:00 +14°C° 0 mm 2 m/S 749 mmHg 85%
    22:00 +13°C° 0 mm 2 m/S 749 mmHg 88%
    23:00 +12°C° 0 mm 2 m/S 749 mmHg 91%
    Mehr zeigen